Starlink 30442

operational
NORAD ID: 57868 Int'l Des: 2023-144 Owner: SPXS Country: US Constellation: starlink
LEOCIRCULAR

About Starlink 30442

Description loading...

Live Position

Loading 3D Globe...

Upcoming Passes

Altitude History

Altitude vs Time

uPlot chart will show altitude changes over time

Two-Line Element Set

1 57868U 23144E 25259.42790276 -.00002086 00000-0 -13936-3 0 9991
2 57868 43.0025 154.6266 0001137 269.5485 90.5227 15.02546275111354
Epoch: Sep 16, 2025 • Age: 13 hours

Current Status

Altitude 559.7 km
Velocity 7.59 km/s
Sub-Earth Point 27.08°N, 159.68°W
Launch Date Sep 16, 2023
Age 2 years
Type internet

Technical Details

Classification Payload
Mass 730.00 kg
Dry Mass 700.00 kg
Total Mass 730.00 kg
Length 0.30 m
Diameter 4.10 m
Span 29.00 m
Shape Box + pan
Manufacturer SPXS
Bus Type Starlink V2M
Phase Status In Orbit
Owner/State SPXS/US

Large Constellations

Loading constellations...